Romeoville, IL

8:23 PM CDT on July 26, 2017 (GMT -0500)
Lewis University

Weather History for KLOT - August, 2013

Change the Weather History Date:

Saturday, August 24, 2013

  Actual Average Record
Temperature  
Mean Temperature 73 °F 72 °F  
Max Temperature 85 °F 82 °F 93 °F (2012)
Min Temperature 61 °F 62 °F 53 °F (2015)
Degree Days  
Heating Degree Days 0 0  
Month to date heating degree days 3 0  
Since 1 June heating degree days 46 35  
Since 1 July heating degree days 11 2  
Cooling Degree Days 8 7  
Month to date cooling degree days 149 186  
Year to date cooling degree days 682 706  
Since 1 June cooling degree days 579 648  
Growing Degree Days 20 (Base 50)    
Moisture  
Dew Point 59 °F    
Average Humidity 68    
Maximum Humidity 97    
Minimum Humidity 44    
Precipitation  
Precipitation 0.00 in 0.13 in 1.75 in (1999)
Month to date precipitation 2.42 3.18  
Year to date precipitation 28.54 26.93  
Sea Level Pressure  
Sea Level Pressure 30.23 in    
Wind  
Wind Speed 5 mph (SSE)    
Max Wind Speed 9 mph    
Max Gust Speed -    
Visibility 10 miles    
Events      
T = Trace of Precipitation, MM = Missing Value Source: NWS Daily Summary

Daily Weather History Graph

Daily Weather History Graph

Search for Another Location

Airport or City:

Trip Planner

Search our weather history database for the weather conditions in past years. The results will help you decide how hot, cold, wet, or windy it might be!

Date:

Astronomy

Aug. 24, 2013 Rise Set
Actual Time 6:10 AM CDT 7:38 PM CDT
Civil Twilight 5:41 AM CDT 8:07 PM CDT
Nautical Twilight 5:06 AM CDT 8:41 PM CDT
Astronomical Twilight 4:29 AM CDT 9:18 PM CDT
Moon 9:27 PM CDT (8/24) 10:14 AM CDT (8/24)
Length of Visible Light 14h 25m
Length of Day
13h 27m
Waning Gibbous, 84% of the Moon is Illuminated
Aug 24
Waning Gibbous
Aug 28
Last Quarter
Sep 5
New
Sep 12
First Quarter
Sep 19
Full

Hourly Weather History & Observations

Time (CDT) Temp. Heat Index Dew Point Humidity Pressure Visibility Wind Dir Wind Speed Gust Speed Precip Events Conditions
12:15 AM 62.6 °F - 57.2 °F 82% 30.18 in 10.0 mi ENE 6.9 mph - N/A   Clear
12:35 AM 62.8 °F - 57.6 °F 83% 30.19 in 10.0 mi ENE 5.8 mph - N/A   Clear
12:55 AM 62.1 °F - 57.6 °F 85% 30.19 in 10.0 mi ENE 4.6 mph - N/A   Clear
1:15 AM 61.7 °F - 58.3 °F 89% 30.19 in 10.0 mi ENE 4.6 mph - N/A   Clear
1:35 AM 61.7 °F - 58.6 °F 90% 30.19 in 10.0 mi ENE 4.6 mph - N/A   Clear
1:55 AM 60.8 °F - 58.5 °F 92% 30.19 in 10.0 mi ENE 4.6 mph - N/A   Clear
2:15 AM 60.3 °F - 58.5 °F 94% 30.19 in 10.0 mi ENE 3.5 mph - N/A   Clear
2:35 AM 60.1 °F - 58.6 °F 95% 30.20 in 10.0 mi NE 3.5 mph - N/A   Clear
2:55 AM 60.3 °F - 58.8 °F 95% 30.20 in 10.0 mi ENE 3.5 mph - N/A   Clear
3:15 AM 60.3 °F - 58.6 °F 94% 30.21 in 10.0 mi ENE 3.5 mph - N/A   Clear
3:35 AM 59.7 °F - 58.3 °F 95% 30.21 in 10.0 mi Calm Calm - N/A   Clear
3:55 AM 59.5 °F - 58.5 °F 96% 30.22 in 10.0 mi Calm Calm - N/A   Clear
4:15 AM 59.9 °F - 58.6 °F 96% 30.22 in 10.0 mi Calm Calm - N/A   Clear
4:35 AM 59.7 °F - 58.8 °F 97% 30.22 in 7.0 mi Calm Calm - N/A   Clear
4:55 AM 58.5 °F - 57.6 °F 97% 30.22 in 10.0 mi ENE 4.6 mph - N/A   Clear
5:15 AM 58.3 °F - 57.0 °F 96% 30.23 in 10.0 mi ENE 4.6 mph - N/A   Clear
5:35 AM 58.8 °F - 56.8 °F 93% 30.23 in 10.0 mi Calm Calm - N/A   Clear
5:55 AM 59.0 °F - 57.6 °F 95% 30.24 in 10.0 mi East 3.5 mph - N/A   Clear
6:15 AM 58.1 °F - 56.5 °F 94% 30.25 in 10.0 mi NE 4.6 mph - N/A   Clear
6:35 AM 59.4 °F - 56.3 °F 90% 30.25 in 10.0 mi East 3.5 mph - N/A   Clear
6:55 AM 61.5 °F - 56.8 °F 85% 30.25 in 10.0 mi ESE 3.5 mph - N/A   Clear
7:15 AM 62.6 °F - 55.9 °F 79% 30.26 in 10.0 mi SE 4.6 mph - N/A   Clear
7:35 AM 63.9 °F - 56.3 °F 76% 30.26 in 10.0 mi SSE 4.6 mph - N/A   Clear
7:55 AM 65.1 °F - 57.0 °F 75% 30.26 in 10.0 mi SSE 3.5 mph - N/A   Clear
8:15 AM 66.6 °F - 57.6 °F 73% 30.27 in 10.0 mi South 4.6 mph - N/A   Clear
8:35 AM 68.5 °F - 58.1 °F 69% 30.27 in 10.0 mi South 4.6 mph - N/A   Clear
8:55 AM 70.3 °F - 58.3 °F 66% 30.27 in 10.0 mi South 4.6 mph - N/A   Clear
9:15 AM 72.9 °F - 59.2 °F 62% 30.27 in 10.0 mi South 4.6 mph - N/A   Clear
9:35 AM 73.8 °F - 59.2 °F 60% 30.27 in 10.0 mi SSW 6.9 mph - N/A   Clear
9:55 AM 75.4 °F - 59.7 °F 58% 30.27 in 10.0 mi SSW 6.9 mph - N/A   Clear
10:15 AM 76.1 °F - 59.7 °F 57% 30.27 in 10.0 mi South 8.1 mph - N/A   Clear
10:35 AM 77.2 °F - 59.7 °F 55% 30.27 in 10.0 mi South 8.1 mph - N/A   Clear
10:55 AM 77.9 °F - 59.5 °F 53% 30.27 in 10.0 mi South 8.1 mph - N/A   Clear
11:15 AM 78.6 °F - 60.3 °F 53% 30.27 in 10.0 mi SSW 8.1 mph - N/A   Clear
11:35 AM 79.3 °F - 59.4 °F 50% 30.27 in 10.0 mi South 9.2 mph - N/A   Clear
11:55 AM 79.7 °F - 59.4 °F 50% 30.26 in 10.0 mi SSW 4.6 mph - N/A   Clear
12:15 PM 80.2 °F 80.9 °F 59.7 °F 49% 30.26 in 10.0 mi SSE 9.2 mph - N/A   Clear
12:35 PM 79.7 °F - 60.1 °F 51% 30.26 in 10.0 mi South 6.9 mph - N/A   Scattered Clouds
12:55 PM 81.0 °F 81.7 °F 60.4 °F 50% 30.25 in 10.0 mi SSE 5.8 mph - N/A   Scattered Clouds
1:15 PM 81.1 °F 81.6 °F 59.9 °F 48% 30.25 in 10.0 mi South 8.1 mph - N/A   Clear
1:35 PM 82.0 °F 82.4 °F 60.1 °F 47% 30.24 in 10.0 mi South 9.2 mph - N/A   Scattered Clouds
1:55 PM 81.7 °F 81.9 °F 59.0 °F 46% 30.24 in 10.0 mi South 3.5 mph - N/A   Scattered Clouds
2:15 PM 82.4 °F 82.9 °F 61.0 °F 48% 30.25 in 10.0 mi SW 4.6 mph - N/A   Scattered Clouds
2:35 PM 83.5 °F 83.7 °F 60.8 °F 46% 30.24 in 10.0 mi South 5.8 mph - N/A   Scattered Clouds
2:55 PM 82.0 °F 82.5 °F 60.8 °F 48% 30.24 in 10.0 mi SSW 5.8 mph - N/A   Scattered Clouds
3:15 PM 82.6 °F 83.1 °F 60.8 °F 48% 30.23 in 10.0 mi South 4.6 mph - N/A   Scattered Clouds
3:35 PM 82.9 °F 83.0 °F 59.7 °F 45% 30.22 in 10.0 mi SSE 6.9 mph - N/A   Clear
3:55 PM 82.8 °F 83.0 °F 60.3 °F 46% 30.21 in 10.0 mi South 5.8 mph - N/A   Clear
4:15 PM 82.8 °F 82.7 °F 59.0 °F 44% 30.21 in 10.0 mi South 3.5 mph - N/A   Clear
4:35 PM 82.8 °F 83.1 °F 60.8 °F 47% 30.21 in 10.0 mi South 5.8 mph - N/A   Clear
4:55 PM 82.4 °F 82.6 °F 59.9 °F 46% 30.21 in 10.0 mi SSW 5.8 mph - N/A   Clear
5:15 PM 82.4 °F 82.7 °F 60.3 °F 47% 30.21 in 10.0 mi SSE 6.9 mph - N/A   Clear
5:35 PM 81.9 °F 82.2 °F 59.7 °F 47% 30.21 in 10.0 mi South 8.1 mph - N/A   Clear
5:55 PM 81.3 °F 81.8 °F 60.1 °F 48% 30.21 in 10.0 mi SSE 8.1 mph - N/A   Clear
6:15 PM 80.4 °F 81.1 °F 59.7 °F 49% 30.20 in 10.0 mi SSE 9.2 mph - N/A   Clear
6:35 PM 79.5 °F - 60.8 °F 53% 30.19 in 10.0 mi SSE 4.6 mph - N/A   Clear
6:55 PM 77.9 °F - 60.1 °F 54% 30.21 in 10.0 mi SSE 5.8 mph - N/A   Clear
7:15 PM 75.4 °F - 60.8 °F 60% 30.21 in 10.0 mi SSE 5.8 mph - N/A   Clear
7:35 PM 73.6 °F - 60.8 °F 64% 30.21 in 10.0 mi SSE 4.6 mph - N/A   Clear
7:55 PM 71.6 °F - 60.8 °F 69% 30.21 in 10.0 mi SE 6.9 mph - N/A   Clear
8:15 PM 71.2 °F - 60.1 °F 68% 30.22 in 10.0 mi SSE 5.8 mph - N/A   Clear
8:35 PM 70.3 °F - 60.1 °F 70% 30.22 in 10.0 mi SSE 5.8 mph - N/A   Clear
8:55 PM 69.8 °F - 59.9 °F 71% 30.23 in 10.0 mi SSE 6.9 mph - N/A   Clear
9:15 PM 69.6 °F - 59.9 °F 71% 30.23 in 10.0 mi SSE 6.9 mph - N/A   Clear
9:35 PM 69.1 °F - 58.8 °F 70% 30.23 in 10.0 mi SSE 6.9 mph - N/A   Clear
9:55 PM 67.6 °F - 58.6 °F 73% 30.23 in 10.0 mi SSE 5.8 mph - N/A   Clear
10:15 PM 66.4 °F - 57.9 °F 74% 30.24 in 10.0 mi SSE 5.8 mph - N/A   Clear
10:35 PM 67.1 °F - 56.3 °F 68% 30.24 in 10.0 mi SSE 6.9 mph - N/A   Clear
10:55 PM 67.1 °F - 55.4 °F 66% 30.23 in 10.0 mi SSE 6.9 mph - N/A   Clear
11:15 PM 66.2 °F - 55.4 °F 68% 30.24 in 10.0 mi SSE 5.8 mph - N/A   Clear
11:35 PM 65.3 °F - 55.4 °F 70% 30.23 in 10.0 mi SSE 5.8 mph - N/A   Clear
11:55 PM 65.3 °F - 55.4 °F 70% 30.23 in 10.0 mi SSE 6.9 mph - N/A   Clear